Regional Weather Roundup
Issued by NWS Sioux Falls, SD

Home | Current Version | Previous Version | Graphics & Text | Print | Product List | Glossary On
Versions: 1 2 3 4 5 6 7 8 9 10 11 12 13 14 15 16 17 18 19 20 21 22 23 24 25 26 27 28 29 30 31 32 33 34 35 36 37 38 39 40 41 42 43 44 45 46 47 48 49 50
000
ASUS43 KFSD 041102
RWRFSD

WEATHER ROUNDUP FOR SE SOUTH DAKOTA/SW MINNESOTA/NW IOWA
NATIONAL WEATHER SERVICE SIOUX FALLS SD
500 AM CST WED MAR 04 2015

NOTE: "FAIR" INDICATES FEW OR NO CLOUDS BELOW 12,000 FEET WITH NO
SIGNIFICANT WEATHER AND OR OBSTRUCTIONS TO VISIBILITY.


SDZ038>040-050-052>070-041200-
SOUTHEAST SOUTH DAKOTA

CITY           SKY/WX    TMP DP  RH WIND       PRES   REMARKS
CHAMBERLAIN    NOT AVBL
HURON          PTCLDY    -5  -9  83 S5        30.15R WCI -16
MADISON        FAIR      -2  -4  92 SW9       30.11R WCI -18
MITCHELL       CLEAR      1  -3  83 S5        30.17R WCI  -9
SIOUX FALLS    PTCLDY     2  -3  80 SW5       30.15R WCI  -8
WINNER         FAIR       5  -7  57 W10       30.14R WCI -10
YANKTON        PTCLDY     9   0  66 W3        30.20S
$$

MNZ071-072-080-081-089-090-097-098-041200-
SOUTHWEST MINNESOTA

CITY           SKY/WX    TMP DP  RH WIND       PRES   REMARKS
FAIRMONT       CLEAR      3  -6  66 NW13      30.13R WCI -14
JACKSON        PTCLDY     1  -6  71 W8        30.13R WCI -12
LUVERNE        PTCLDY     0  -6  78 CALM      30.15R
MARSHALL       CLEAR      0  -9  65 W10       30.14R WCI -17
MONTEVIDEO     CLEAR     -2  -9  71 NW5       30.15R WCI -12
PIPESTONE      PTCLDY    -8 -11  84 W3        30.10R
REDWOOD FALLS  CLEAR     -2  -9  72 W8        30.14R WCI -17
TRACY          CLEAR      0  -8  67 W6        30.13R WCI -12
WINDOM         CLEAR     -2  -9  71 W6        30.13R WCI -14
WORTHINGTON    PTCLDY     0  -8  71 W8        30.14R WCI -15
$$

IAZ001>003-012>014-020>022-031-032-NEZ013-014-SDZ071-041200-
NORTHWEST IOWA

CITY           SKY/WX    TMP DP  RH WIND       PRES   REMARKS
DENISON        CLOUDY    12   5  73 NW6       30.17R WCI   3
ESTHERVILLE    PTCLDY     2  -6  69 NW8       30.15R WCI -12
LE MARS        MOCLDY     9   3  78 CALM      30.20R
ORANGE CITY    PTCLDY     9   0  66 NW5       30.16S WCI   0
SIOUX CITY     PTCLDY    12   4  70 NW5       30.21R WCI   4
SPENCER        PTCLDY     5  -3  69 W8        30.16R WCI  -8
$$

ABBREVIATIONS USED IN REMARKS
   TC - TEMPERATURE IN CELSIUS
  WCI - WIND CHILL INDEX
   HX - HEAT INDEX
  VSB - VISIBILITY




USA.gov is the U.S. government's official web portal to all federal, state and local government web resources and services.